Location: Shepherdstown, WV
(39.4326°N, 77.8042°W)
Time: 20:10:32
(UTC-04:00)

Transit 2A - Pass Details

Date: 12 August 2021
Orbit: 594 x 964 km, 66.7° (Epoch: 24 September)

Event Time Altitude Azimuth Distance (km) Brightness Sun altitude
Exits shadow 05:08:11 21° 245° (WSW) 1,394 6.7 -13.5°
Maximum altitude 05:10:44 41° 305° (NW) 915 6.2 -13.1°
Drops below altitude 10° 05:15:13 10° 16° (NNE) 2,110 9.0 -12.3°
Sets 05:17:46 0° 24° (NNE) 3,087 10.1 -11.9°
